Weather in Moulins

France     46°33′56″N   3°20′06″E
В апреле 2022 года жителям России запретили посещать сайт meteo.paraplan.net по решению Генеральной прокуратуры. Аудитория сайта уменьшилась в 10 раз. Владельцы сайта не видят смысла в поддержке погодного сервера в таких условиях. Сайт будет закрыт в октябре.
temp.,
°C
wind,
m/s
gust,
m/s
humid.,
%
clouds,
%
prec.,
mm/h
press.,
hPa
HPBL,
m
3 october, mon
mon323:00+15wsw1180100 0.0 102528
02:00+14wnw1286100 0.0 102562
05:00+14nnw119051 0.0 102538
08:00+11nnw119937 0.0 102517
11:00+16nne1278100 0.0 1026522
14:00+20ene225747 0.0 10241191
17:00+19ese22575 0.0 10231071
20:00+13w008610 0.0 102210
4 october, tue
tue423:00+11ese119412 0.0 102314
02:00+9se11975 0.0 102211
05:00+9se11986 0.0 102118
08:00+8se119916 0.0 102119
11:00+16sse23700 0.0 1021371
14:00+22s124871 0.0 1020935
17:00+22wnw124598 0.0 10201171
20:00+14nnw117926 0.0 102117
5 october, wed
wed523:00+13sw118299 0.0 102210
02:00+12s118231 0.0 102228
05:00+11s1391100 0.0 102152
08:00+10s23885 0.0 102153
11:00+19s25543 0.0 1021336
14:00+25sw25343 0.0 10201393
17:00+25w24345 0.0 10201415
20:00+17wnw116447 0.0 102311
6 october, thu
thu623:00+14w127421 0.0 102637
02:00+12wnw2883100 0.0 1029183
05:00+11nw129389 0.0 103092
08:00+10nnw129612 0.0 103161
11:00+15nne127340 0.0 1031579
14:00+19ene125963 0.0 10301138
17:00+19nne2259100 0.0 10281085
20:00+14n1481100 0.0 102881
7 october, fri
fri723:00+12e168999 0.0 1028155
02:00+11e148788 0.0 102782
05:00+10ese119664 0.0 102518
08:00+10se119945 0.0 102520
11:00+17sse126732 0.0 1025371
14:00+23wsw134665 0.0 10221186
17:00+23nw224858 0.0 10211221
20:00+15nnw118221 0.0 102214